This is the latest recevied weather packets stored in our database for station/object PY3MO-13. If no packets are shown the sender has not sent any weather packets the latest 10 day(s).
| Time | Temp. | Humidity | Pressure | Rain* | Wind** | Luminosity | Snow |
|---|---|---|---|---|---|---|---|
| 1777522970 | 9.44° C | 65% | 1017 hPa | 0 mm | - | - | - |
| 1777522672 | 9.44° C | 69% | 1016.9 hPa | 0 mm | - | - | - |
| 1777522371 | 9.44° C | 69% | 1017 hPa | 0 mm | - | - | - |
| 1777522071 | 10° C | 68% | 1017 hPa | 0 mm | - | - | - |
| 1777521770 | 9.44° C | 66% | 1016.8 hPa | 0 mm | - | - | - |
| 1777521470 | 9.44° C | 69% | 1016.7 hPa | 0 mm | - | - | - |
| 1777521172 | 9.44° C | 69% | 1016.7 hPa | 0 mm | - | - | - |
| 1777520871 | 10° C | 69% | 1016.7 hPa | 0 mm | - | - | - |
| 1777520571 | 10° C | 72% | 1016.6 hPa | 0 mm | - | - | - |
| 1777520272 | 10° C | 72% | 1016.7 hPa | 0 mm | - | - | - |
| 1777519972 | 10° C | 72% | 1016.6 hPa | 0 mm | - | - | - |
| 1777519671 | 10° C | 72% | 1016.7 hPa | 0 mm | - | - | - |
| 1777519370 | 10° C | 72% | 1016.8 hPa | 0 mm | - | - | - |
| 1777519072 | 10° C | 71% | 1016.6 hPa | 0 mm | - | - | - |
| 1777518771 | 10° C | 71% | 1016.5 hPa | 0 mm | - | - | - |
| 1777518471 | 10.56° C | 71% | 1016.4 hPa | 0 mm | - | - | - |
| 1777518170 | 10° C | 70% | 1016.4 hPa | 0 mm | - | - | - |
| 1777517872 | 10° C | 71% | 1016.2 hPa | 0 mm | - | - | - |
| 1777517572 | 10° C | 71% | 1016.3 hPa | 0 mm | - | - | - |
| 1777517271 | 10° C | 70% | 1016.4 hPa | 0 mm | - | - | - |
| 1777516970 | 10.56° C | 70% | 1016.4 hPa | 0 mm | - | - | - |
| 1777516672 | 10.56° C | 71% | 1016.2 hPa | 0 mm | - | - | - |
| 1777516372 | 10.56° C | 71% | 1016.3 hPa | 0 mm | - | - | - |
| 1777516071 | 10.56° C | 71% | 1016.2 hPa | 0 mm | - | - | - |
| 1777515771 | 10.56° C | 73% | 1016 hPa | 0 mm | - | - | - |
* Rain latest hour (hover to see other rain measurements)
** Current wind speed in m/s (hover to see current wind gust speed)